Location: Knowlton
(51.2333°N, 1.2667°E)
Time: 04:30:12
(UTC+00:00)

Cosmos 405 Rocket - Pass Details

Date: 18 April 2021
Orbit: 489 x 553 km, 81.3° (Epoch: 06 May)

Event Time Altitude Azimuth Distance (km) Brightness Sun altitude
Rises 21:03:21 0° 339° (NNW) 2,736 7.6 -17.5°
Reaches altitude 10° 21:05:43 10° 329° (NNW) 1,831 6.7 -17.8°
Maximum altitude 21:09:16 31° 268° (W) 979 4.5 -18.1°
Enters shadow 21:12:24 12° 208° (SSW) 1,663 5.1 -18.5°
